Location: ??????
(41.3164°N, 22.6615°E)
Time: 03:58:43
(UTC+00:00)

BEESAT 2 - Visible Passes

Search period start: 28 June 2022 00:00
Search period end: 08 July 2022 00:00
Orbit: 485 x 508 km, 64.9° (Epoch: 27 June)

Date Brightness Start Highest point End Pass type
(mag) Time Alt. Az. Time Alt. Az. Time Alt. Az.
28 Jun ? 19:44:23 10° NW 19:47:40 27° WSW 19:50:07 15° SSW visible
29 Jun ? 19:22:24 10° NW 19:25:49 30° WSW 19:29:05 11° S visible
30 Jun ? 19:00:26 10° NW 19:03:58 35° WSW 19:07:28 10° S visible
01 Jul ? 18:38:27 10° NW 18:42:05 39° WSW 18:45:41 10° S visible
